Tracking 21496 objects as of 1-Oct-2020
HD Live streaming from Space Station
objects crossing your sky now

GEOS 2

Track GEOS 2 now!
GEOS 2 is classified as:


NORAD ID: 10981
Int'l Code: 1978-071A
Perigee: 36,031.0 km
Apogee: 36,063.6 km
Inclination: 10.6 °
Period: 1,449.1 minutes
Semi major axis: 42418 km
RCS: 2.0304 m2 (large)
Launch date: July 14, 1978
Source: European Space Agency (ESA)
Launch site: AIR FORCE EASTERN TEST RANGE (AFETR)
aabbcc
Your satellite tracking list
Your tracking list is empty




NASA's NSSDC Master Catalog

Two Line Element Set (TLE):
1 10981U 78071A   20274.15485308 +.00000071 +00000-0 +00000-0 0  9999
2 10981 010.5623 309.0159 0003847 332.5717 204.3503 00.99374165153263
Source of the keplerian elements: AFSPC